Change the Weather History Date:

Thursday, July 25, 2013

  Actual Average Record
Temperature  
Mean Temperature 66 °F 73 °F  
Max Temperature 73 °F 85 °F 97 °F (2001)
Min Temperature 58 °F 61 °F 48 °F (1953)
Degree Days  
Heating Degree Days 0 0  
Month to date heating degree days 0 0  
Since 1 June heating degree days 31 49  
Since 1 July heating degree days 0 0  
Cooling Degree Days 1 0  
Month to date cooling degree days 348 192  
Year to date cooling degree days 555 355  
Since 1 June cooling degree days 502 319  
Growing Degree Days 16 (Base 50)    
Moisture  
Dew Point 54 °F    
Average Humidity 77    
Maximum Humidity 93    
Minimum Humidity 61    
Precipitation  
Precipitation 0.00 in 0.16 in 0.91 in (1975)
Month to date precipitation 2.91 3.65  
Year to date precipitation 23.38 25.58  
Sea Level Pressure  
Sea Level Pressure 30.03 in    
Wind  
Wind Speed 6 mph (NNE)    
Max Wind Speed 16 mph    
Max Gust Speed 21 mph    
Visibility 10 miles    
Events      
T = Trace of Precipitation, MM = Missing Value Source: NWS Daily Summary

Daily Weather History Graph

Daily Weather History Graph

Search for Another Location

Airport or City:

Trip Planner

Search our weather history database for the weather conditions in past years. The results will help you decide how hot, cold, wet, or windy it might be!

Date:

Astronomy

Jul. 25, 2013 Rise Set
Actual Time 5:43 AM EDT 8:20 PM EDT
Civil Twilight 5:11 AM EDT 8:52 PM EDT
Nautical Twilight 4:31 AM EDT 9:31 PM EDT
Astronomical Twilight 3:45 AM EDT 10:16 PM EDT
Moon 9:55 PM EDT (7/25) 9:13 AM EDT (7/25)
Length of Visible Light 15h 40m
Length of Day
14h 36m
Waning Gibbous, 88% of the Moon is Illuminated
Jul 25
Waning Gibbous
Jul 29
Last Quarter
Aug 6
New
Aug 14
First Quarter
Aug 20
Full

Hourly Weather History & Observations

Time (EDT) Temp. Dew Point Humidity Pressure Visibility Wind Dir Wind Speed Gust Speed Precip Events Conditions
12:53 AM 62.1 °F 50.0 °F 65% 29.98 in 10.0 mi North 10.4 mph - N/A   Overcast
1:53 AM 61.0 °F 51.1 °F 70% 29.98 in 10.0 mi North 9.2 mph - N/A   Overcast
2:53 AM 61.0 °F 50.0 °F 67% 29.98 in 10.0 mi NNE 10.4 mph 18.4 mph N/A   Overcast
3:53 AM 61.0 °F 48.9 °F 64% 29.98 in 10.0 mi North 5.8 mph - N/A   Overcast
4:53 AM 60.1 °F 48.0 °F 64% 29.99 in 10.0 mi NNE 9.2 mph - N/A   Overcast
5:53 AM 59.0 °F 48.0 °F 67% 30.00 in 10.0 mi NNE 8.1 mph - N/A   Mostly Cloudy
6:53 AM 59.0 °F 48.0 °F 67% 30.02 in 10.0 mi North 12.7 mph 20.7 mph N/A   Mostly Cloudy
7:53 AM 59.0 °F 48.9 °F 69% 30.04 in 10.0 mi NNE 13.8 mph 18.4 mph N/A   Mostly Cloudy
8:53 AM 60.1 °F 48.9 °F 67% 30.05 in 10.0 mi NNE 10.4 mph - N/A   Overcast
9:53 AM 61.0 °F 50.0 °F 67% 30.06 in 10.0 mi NNE 10.4 mph - N/A   Overcast
10:53 AM 62.1 °F 50.0 °F 65% 30.06 in 10.0 mi NNE 11.5 mph - N/A   Overcast
11:53 AM 64.0 °F 52.0 °F 65% 30.07 in 10.0 mi North 8.1 mph - N/A   Overcast
12:53 PM 64.0 °F 52.0 °F 65% 30.07 in 10.0 mi North 5.8 mph - N/A   Overcast
1:53 PM 66.9 °F 54.0 °F 63% 30.06 in 10.0 mi North 6.9 mph - N/A   Overcast
2:53 PM 69.1 °F 55.0 °F 61% 30.05 in 10.0 mi NW 5.8 mph - N/A   Overcast
3:53 PM 69.1 °F 55.9 °F 63% 30.05 in 10.0 mi Calm Calm - N/A   Overcast
4:53 PM 71.1 °F 57.0 °F 61% 30.03 in 10.0 mi North 5.8 mph - N/A   Mostly Cloudy
5:53 PM 72.0 °F 57.9 °F 61% 30.03 in 10.0 mi North 5.8 mph - N/A   Mostly Cloudy
6:53 PM 72.0 °F 59.0 °F 64% 30.04 in 10.0 mi North 3.5 mph - N/A   Overcast
7:53 PM 70.0 °F 60.1 °F 71% 30.04 in 10.0 mi NE 4.6 mph - N/A   Mostly Cloudy
8:53 PM 69.1 °F 60.1 °F 73% 30.04 in 10.0 mi Calm Calm - N/A   Mostly Cloudy
9:53 PM 68.0 °F 61.0 °F 78% 30.03 in 10.0 mi Calm Calm - N/A   Scattered Clouds
10:53 PM 66.0 °F 62.1 °F 87% 30.04 in 10.0 mi Calm Calm - N/A   Mostly Cloudy
11:53 PM 64.9 °F 62.1 °F 90% 30.03 in 10.0 mi Calm Calm - N/A   Overcast